Location: ActonStarParty
(42.4766°N, 71.4538°W)
Time: 11:38:08
(UTC-05:00)

ISS - Visible Passes

Search period start: 01 February 2015 00:00
Search period end: 11 February 2015 00:00
Orbit: 400 x 408 km, 51.6° (Epoch: 01 February)

Date Brightness Start Highest point End Pass type
(mag) Time Alt. Az. Time Alt. Az. Time Alt. Az.
03 Feb -0.4 19:23:10 10° SW 19:23:34 13° SW 19:23:34 13° SW visible
04 Feb -2.1 18:31:15 10° SSW 18:33:50 27° SE 18:33:50 27° SE visible
05 Feb -1.3 17:39:54 10° S 17:41:49 15° SE 17:43:49 10° E visible
05 Feb -1.6 19:14:43 10° WSW 19:16:39 32° WSW 19:16:39 32° WSW visible
06 Feb -3.3 18:22:17 10° SW 18:25:32 66° SE 18:26:41 35° ENE visible
07 Feb -1.9 19:06:33 10° W 19:09:15 34° NW 19:09:15 34° NW visible
08 Feb -2.8 18:13:47 10° WSW 18:16:59 56° NNW 18:19:05 20° NE visible
08 Feb 0.1 19:51:33 10° WNW 19:51:43 11° WNW 19:51:43 11° WNW visible
09 Feb -1.5 18:58:32 10° WNW 19:01:13 23° NNW 19:01:27 23° N visible
10 Feb -1.9 18:05:31 10° W 18:08:29 31° NNW 18:11:07 12° NE visible
10 Feb -0.1 19:43:29 10° NW 19:43:45 11° NW 19:43:45 11° NW visible
